SCP
-0 -0 0 -0 0 0 0 0 0 0 0 0 0 0 0 0 0 0 0 0 0 0 0 0 0 0 0 0 0 0 0 0 0 0 0 0 0 0 0 0 0 0 0 0 0 0 0 0 0
-0 0 0 -0 0 -0 0 0 0 0 0 0 0 0 0 0 0 0 0 0 0 0 0 0 0 0 0 0 0 0 0 0 0 0 0 0 0 0 0 0 0 0 0 0 0 0 0 0 0
0 -0 -0 0 0 0 0 0 0 0 0 0 0 0 0 0 0 0 0 0 0 0 0 0 0 0 0 0 0 0 0 0 0 0 0 0 0 0 0 0 0 0 0 0 0 0 0 0 0
-0 -0 0 0 0 0 0 0 0 0 0 0 0 0 0 0 0 0 0 0 0 0 0 0 0 0 0 0 0 0 0 0 0 0 0 0 0 0 0 0 0 0 0 0 0 0 0 0 0
-0 -0 0 0 0 0 0 0 0 0 0 0 0 0 0 0 0 0 0 0 0 0 0 0 0 0 0 0 0 0 0 0 0 0 0 0 0 0 0 0 0 0 0 0 0 0 0 0 0
-0 -0 0 0 0 0 0 0 0 0 0 0 0 0 0 0 0 0 0 0 0 0 0 0 0 0 0 0 0 0 0 0 0 0 0 0 0 0 0 0 0 0 0 0 0 0 0 0 0
-0 0 0 0 0 0 0 0 0 0 0 0 0 0 0 0 0 0 0 0 0 0 0 0 0 0 0 0 0 0 0 0 0 0 0 0 0 0 0 0 0 0 0 0 0 0 0 0 0
0 0 0 0 0 0 0 0 0 0 0 0 0 0 0 0 0 0 0 0 0 0 0 0 0 0 0 0 0 0 0 0 0 0 0 0 0 0 0 0 0 0 0 0 0 0 0 0 0
0 0 0 0 0 0 0 0 0 0 0 0 0 0 0 0 0 0 0 0 0 0 0 0 0 0 0 0 0 0 0 0 0 0 0 0 0 0 0 0 0 0 0 0 0 0 0 0 0
0 0 0 0 0 0 0 0 0 0 0 0 0 0 0 0 0 0 0 0 0 0 0 0 0 0 0 0 0 0 0 0 0 0 0 0 0 0 0 0 0 0 0 0 0 0 0 0 0
0 0 0 0 0 0 0 0 0 0 0 0 0 0 0 0 0 0 0 0 0 0 0 0 0 0 0 0 0 0 0 0 0 0 0 0 0 0 0 0 0 0 0 0 0 0 0 0 0
0 0 0 0 0 0 0 0 0 0 0 0 0 0 0 0 0 0 0 0 0 0 0 0 0 0 0 0 0 0 0 0 0 0 0 0 0 0 0 0 0 0 0 0 0 0 0 0 0
0 0 0 0 0 0 0 0 0 0 0 0 0 0 0 0 0 0 0 0 0 0 0 0 0 0 0 0 0 0 0 0 0 0 0 0 0 0 0 0 0 0 0 0 0 0 0 0 0
0 0 0 0 0 0 0 0 0 0 0 0 0 0 0 0 0 0 0 0 0 0 0 0 0 0 0 0 0 0 0 0 0 0 0 0 0 0 0 0 0 0 0 0 0 0 0 0 0
0 0 0 0 0 0 0 0 0 0 0 0 0 0 0 0 0 0 0 0 0 0 0 0 0 0 0 0 0 0 0 0 0 0 0 0 0 0 0 0 0 0 0 0 0 0 0 0 0
0 0 0 0 0 0 0 0 0 0 0 0 0 0 0 0 0 0 0 0 0 0 0 0 0 0 0 0 0 0 0 0 0 0 0 0 0 0 0 0 0 0 0 0 0 0 0 0 0
0 0 0 0 0 0 0 0 0 0 0 0 0 0 0 0 0 0 0 0 0 0 0 0 0 0 0 0 0 0 0 0 0 0 0 0 0 0 0 0 0 0 0 0 0 0 0 0 0
0 0 0 0 0 0 0 0 0 0 0 0 0 0 0 0 0 0 0 0 0 0 0 0 0 0 0 0 0 0 0 0 0 0 0 0 0 0 0 0 0 0 0 0 0 0 0 0 0
0 0 0 0 0 0 0 0 0 0 0 0 0 0 0 0 0 0 0 0 0 0 0 0 0 0 0 0 0 0 0 0 0 0 0 0 0 0 0 0 0 0 0 0 0 0 0 0 0
0 0 0 0 0 0 0 0 0 0 0 0 0 0 0 0 0 0 0 0 0 0 0 0 0 0 0 0 0 0 0 0 0 0 0 0 0 0 0 0 0 0 0 0 0 0 0 0 0
0 0 0 0 0 0 0 0 0 0 0 0 0 0 0 0 0 0 0 0 0 0 0 0 0 0 0 0 0 0 0 0 0 0 0 0 0 0 0 0 0 0 0 0 0 0 0 0 0
0 0 0 0 0 0 0 0 0 0 0 0 0 0 0 0 0 0 0 0 0 0 0 0 0 0 0 0 0 0 0 0 0 0 0 0 0 0 0 0 0 0 0 0 0 0 0 0 0
0 0 0 0 0 0 0 0 0 0 0 0 0 0 0 0 0 0 0 0 0 0 0 0 0 0 0 0 0 0 0 0 0 0 0 0 0 0 0 0 0 0 0 0 0 0 0 0 0
-0 0 0 0 0 0 0 0 0 0 0 0 0 0 0 0 0 0 0 0 0 0 0 0 0 0 0 0 0 0 0 0 0 0 0 0 0 0 0 0 0 0 0 0 0 0 0 0 0
0 -0 0 0 0 0 0 0 0 0 0 0 0 0 0 0 0 0 0 0 0 0 0 0 0 0 0 0 0 0 0 0 0 0 0 0 0 0 0 0 0 0 0 0 0 0 0 0 0
0 0 0 0 0 0 0 0 0 0 0 0 0 0 0 0 0 0 0 0 0 0 0 0 0 0 0 0 0 0 0 0 0 0 0 0 0 0 0 0 0 0 0 0 0 0 0 0 0
0 0 0 0 0 0 0 0 0 0 0 0 0 0 0 0 0 0 0 0 0 0 0 0 0 0 0 0 0 0 0 0 0 0 0 0 0 0 0 0 0 0 0 0 0 0 0 0 0
0 0 0 0 0 0 0 0 0 0 -0 -0 -0 -0 0 0 0 0 0 0 0 0 0 0 0 0 0 0 0 0 0 0 0 0 0 0 0 0 0 0 0 0 0 0 0 0 0 0 0
0 0 0 0 0 0 0 0 0 0 -0 -0 -0 -0 -0 -0 -0 0 0 0 0 0 0 0 0 0 0 0 0 0 0 0 0 0 0 0 0 0 0 0 0 0 0 0 0 0 0 0 0
0 0 0 0 0 0 0 0 0 0 0 0 -0 -0 -0 -0 -0 0 0 0 0 0 0 0 0 0 0 0 0 0 0 0 0 0 0 0 0 0 0 0 0 0 0 0 0 0 0 0 0
Wind_Speed_500mb
10 7 9 2 8 9 5 8 7 11 7 9 10 7 18 19 13 6 12 9 6 10 16 23 28 38 45 50 41 32 29 27 27 27 24 28 26 27 28 30 30 31 32 31 34 34 33 29 25
11 11 5 4 10 11 9 8 12 9 21 18 13 8 11 12 20 16 6 4 4 10 19 22 32 40 43 33 31 29 24 24 26 26 27 24 29 30 32 32 32 29 30 30 30 34 35 35 32
10 10 6 5 6 8 4 7 18 26 16 5 9 14 8 10 13 9 7 4 11 19 25 26 37 35 31 25 22 24 24 22 20 19 25 26 27 30 32 32 32 30 30 30 32 34 33 35 37
6 2 2 9 1 7 7 16 28 22 9 4 14 17 14 8 6 10 4 8 17 26 29 29 29 27 24 22 20 18 18 15 17 18 21 27 30 32 31 30 28 28 32 33 32 34 35 35 34
4 4 6 3 6 7 7 18 17 12 12 12 2 13 12 11 15 8 6 14 19 25 29 29 28 25 22 17 19 17 18 18 17 17 21 25 31 32 33 29 28 28 31 33 31 35 33 35 33
7 6 10 8 7 8 12 19 13 8 10 12 12 14 11 14 10 4 9 13 20 23 28 29 29 26 24 21 19 18 17 17 23 26 27 30 34 36 34 33 32 31 33 35 33 32 31 34 38
6 6 3 0 9 11 11 12 9 10 14 10 9 7 14 14 9 3 11 16 20 24 26 26 25 25 24 22 22 21 24 26 28 29 32 34 37 38 39 40 39 35 39 40 35 36 35 35 35
2 1 7 4 9 6 17 14 11 4 9 11 5 7 13 19 7 5 10 11 14 18 21 23 25 25 24 23 25 25 27 28 30 31 32 35 37 39 43 45 46 48 48 43 45 40 44 40 41
3 7 4 5 7 11 21 11 6 8 17 9 6 10 23 20 6 4 6 10 12 15 20 24 25 26 26 25 29 29 28 27 29 32 35 38 39 42 45 48 49 48 48 47 46 45 46 47 42
4 5 5 7 5 7 21 11 17 13 20 15 22 24 23 16 8 4 6 10 13 16 18 24 25 26 27 26 30 30 29 30 32 34 36 38 40 44 46 47 49 48 45 43 45 47 47 39 36
7 5 8 8 5 15 19 15 9 14 10 13 26 29 22 15 7 7 7 10 12 17 19 22 23 26 27 29 29 28 29 29 31 37 39 40 40 39 39 41 39 41 42 39 42 40 37 39 38
6 12 5 9 12 12 16 18 13 3 6 13 28 27 21 13 7 7 7 9 10 14 19 21 23 24 27 27 28 28 27 31 34 38 39 41 39 39 37 34 36 34 34 38 38 38 39 39 39
11 10 12 15 15 16 16 10 8 12 15 26 29 23 19 11 7 7 5 9 11 13 17 19 21 24 27 27 29 27 28 29 35 33 36 40 38 37 36 34 34 34 35 35 38 37 38 37 38
11 18 20 10 12 11 9 10 9 15 23 25 23 21 16 10 5 4 5 7 10 13 15 16 18 24 27 27 30 30 29 32 30 32 36 37 35 34 34 34 36 34 33 34 34 36 35 35 37
20 13 11 11 8 6 7 10 12 25 27 24 22 19 16 10 3 1 5 5 10 12 16 16 18 23 27 30 31 30 30 29 29 32 33 35 35 35 33 32 33 36 34 37 32 31 34 34 32
6 7 6 10 12 6 6 5 13 27 29 26 22 21 16 12 7 4 9 6 11 12 13 15 20 22 25 28 29 28 28 27 29 28 31 36 37 36 30 30 33 40 39 37 38 36 38 35 35
7 4 3 8 14 7 12 1 13 25 29 26 25 22 19 15 11 6 9 9 14 15 12 13 17 20 24 26 26 27 25 26 26 28 31 40 35 34 31 31 33 38 38 35 35 34 37 42 38
3 5 3 7 11 14 11 19 11 26 30 28 27 24 23 17 14 10 10 12 15 15 12 12 15 19 23 22 20 19 20 22 25 31 37 38 33 34 32 31 33 33 33 34 36 40 40 37 39
2 4 7 1 5 8 15 21 15 27 31 29 29 29 27 22 16 15 13 11 13 12 11 11 13 17 21 20 20 16 20 20 23 30 35 36 35 33 30 30 33 32 33 34 36 39 45 44 42
5 9 5 3 4 8 9 23 15 24 33 34 33 32 30 25 21 18 14 11 12 11 10 8 12 16 19 19 20 17 20 20 23 28 29 34 34 34 30 31 30 32 33 30 31 35 43 38 46
6 10 3 7 3 7 14 9 8 13 21 22 34 33 31 31 26 21 18 15 15 12 10 8 10 14 17 18 20 19 19 19 19 25 28 32 33 33 35 31 28 31 32 35 34 31 35 44 38
10 3 2 6 8 5 4 4 8 11 14 25 33 41 37 35 30 24 21 20 16 14 12 10 10 12 13 14 15 16 15 16 23 26 30 30 31 32 34 32 30 30 31 32 32 30 31 36 40
5 1 5 6 7 7 6 7 10 4 13 24 36 41 40 37 33 28 25 21 18 17 14 11 10 13 13 13 15 17 16 18 23 24 27 29 28 30 33 35 32 32 31 32 32 32 31 30 35
14 4 5 5 6 7 6 7 9 10 5 9 25 38 41 40 36 29 25 22 19 20 16 12 11 13 13 13 14 16 18 19 21 24 24 28 26 25 28 36 32 29 30 32 33 32 33 33 33
7 7 4 7 6 4 4 8 6 11 10 7 16 34 41 40 37 31 29 26 23 23 18 14 11 12 12 12 13 15 18 20 22 25 26 29 27 27 30 35 34 31 32 31 32 31 33 35 36
3 6 5 8 6 6 4 9 3 5 6 15 12 16 38 41 38 34 35 32 30 27 23 17 14 12 11 10 11 14 16 17 20 23 26 28 28 29 30 32 35 33 33 35 34 29 32 32 30
7 6 4 3 1 8 3 7 9 10 15 19 21 24 41 44 41 38 37 35 31 29 25 20 17 13 11 11 10 13 16 17 19 22 26 28 30 31 32 32 33 33 29 31 34 30 30 32 30
3 3 4 4 5 8 6 10 8 15 26 25 29 37 41 41 41 40 40 38 35 32 28 24 20 15 13 13 11 12 15 17 18 22 24 27 30 33 34 34 33 31 33 29 31 33 29 31 30
6 5 2 3 4 6 8 4 3 17 22 28 38 42 44 47 45 43 42 40 38 35 31 27 23 19 16 15 12 12 14 16 18 20 24 26 28 30 31 33 33 29 30 38 27 32 30 30 29
6 3 8 5 6 1 4 12 5 6 14 20 26 37 42 44 45 43 44 42 42 40 35 31 27 24 20 17 14 12 13 14 17 18 21 23 24 27 30 31 32 28 24 35 34 30 32 29 27
Wind_Direction_500mb
155 149 171 177 233 241 131 104 104 119 113 50 69 50 82 44 13 24 117 81 48 359 339 355 338 326 325 326 332 340 345 342 346 354 354 352 356 351 358 357 348 348 346 359 346 341 336 328 329
162 174 162 248 257 263 105 122 122 85 118 115 81 84 59 78 65 102 108 68 6 330 331 348 325 321 326 338 350 354 351 340 353 344 352 357 358 348 351 348 346 345 345 348 341 336 337 339 327
147 155 240 252 268 312 50 113 122 118 128 142 114 69 69 81 73 98 126 27 350 328 321 322 315 325 336 357 351 356 359 3 351 350 348 350 349 345 343 344 350 348 345 342 341 335 334 334 333
150 151 181 257 51 78 62 127 134 135 119 112 124 82 82 72 96 110 82 347 331 327 326 325 328 334 339 351 359 2 9 1 349 346 353 349 341 344 347 353 344 346 340 341 334 331 331 331 328
170 235 227 187 108 105 115 136 151 143 125 130 141 114 89 104 119 104 14 348 343 335 336 335 337 338 341 356 3 7 6 3 10 355 347 341 344 346 345 343 339 342 337 334 332 330 330 322 326
231 268 247 260 126 120 121 149 147 139 122 118 109 114 105 138 117 69 7 355 341 340 338 340 343 348 352 350 357 17 12 359 346 342 342 343 343 343 343 340 336 338 332 329 329 323 320 321 318
267 259 331 173 147 160 153 159 185 138 133 92 117 89 134 147 149 31 353 349 348 347 348 352 353 355 358 357 354 351 347 345 344 345 344 344 344 344 342 341 338 337 331 331 328 322 324 319 308
77 288 164 188 188 119 143 133 121 113 104 117 104 138 154 170 155 11 11 10 4 359 356 358 359 2 4 3 1 356 352 351 348 346 345 346 346 344 342 340 335 332 329 327 326 324 320 319 309
111 232 222 147 178 120 156 146 108 118 123 103 86 110 132 147 102 64 19 6 6 6 4 1 2 2 5 359 357 359 358 356 353 352 350 349 345 342 340 335 332 328 326 324 325 326 326 323 323
341 269 68 41 70 134 153 167 143 155 140 105 111 123 134 131 113 39 22 9 6 3 3 358 358 1 4 0 358 359 356 354 352 351 346 344 342 339 337 336 334 330 326 325 324 323 324 329 322
19 41 112 47 78 137 143 137 148 160 182 166 164 152 146 138 92 53 30 14 5 0 357 356 358 1 4 3 1 355 354 350 349 346 344 343 342 342 341 338 336 333 333 332 330 327 324 321 319
119 72 83 103 105 131 147 136 128 143 101 146 155 150 148 135 87 51 29 11 4 357 354 356 0 3 1 2 356 353 351 350 347 344 343 343 343 342 341 340 336 335 332 330 328 324 320 319 318
88 120 84 105 108 112 128 123 130 127 119 137 145 149 151 138 97 51 29 4 4 354 355 353 359 3 1 360 355 351 349 346 345 344 345 348 344 343 341 338 338 334 330 328 327 324 322 319 316
113 118 116 115 119 124 150 146 177 166 151 148 156 159 159 145 126 50 12 352 355 355 352 356 358 359 3 357 353 353 350 347 348 350 350 349 347 343 341 342 342 337 331 328 329 331 328 320 325
132 119 135 149 148 127 163 188 217 166 167 168 171 171 168 174 178 71 331 335 353 348 351 349 359 360 359 357 354 355 349 352 353 353 352 352 351 347 345 345 343 345 340 339 341 334 335 333 325
182 206 210 152 181 155 227 104 152 169 177 184 182 185 182 197 198 244 318 329 343 345 341 351 357 0 356 353 353 352 353 356 356 356 354 353 352 351 351 343 345 349 356 347 347 345 338 334 330
186 311 257 167 198 167 228 353 147 180 196 196 196 194 200 206 219 254 307 321 332 334 343 343 352 353 351 353 354 356 358 360 360 359 357 356 356 356 353 347 345 348 348 352 348 338 338 336 331
325 268 228 285 160 215 220 254 183 193 204 205 203 201 209 212 223 235 285 306 326 327 333 336 345 346 348 354 355 357 1 2 2 1 359 1 358 358 354 349 343 341 343 344 345 343 343 337 331
346 279 283 172 124 254 250 264 232 207 210 212 211 211 214 216 218 240 270 294 312 310 321 320 335 338 349 354 356 3 3 2 1 360 2 3 1 356 354 350 345 343 340 339 344 341 342 344 341
263 282 276 161 137 242 272 271 250 217 221 220 217 216 216 213 219 228 247 259 283 274 288 314 325 335 347 354 356 4 5 2 0 3 2 2 2 1 355 349 346 345 340 335 337 340 337 339 340
261 279 275 315 192 236 288 249 200 212 221 220 222 221 219 216 219 224 227 236 258 252 270 278 309 328 343 351 357 1 358 357 357 0 2 1 4 2 0 353 347 346 343 341 332 333 336 335 340
289 78 282 266 277 334 317 360 193 192 216 215 216 213 215 214 218 220 221 232 239 242 260 268 299 324 333 349 359 359 356 354 354 1 3 3 5 5 3 1 357 353 351 343 344 337 334 331 332
35 7 284 266 266 281 159 260 115 207 237 213 211 210 210 212 214 217 220 225 233 239 248 262 293 315 333 342 354 3 354 349 352 354 359 2 6 6 5 2 357 353 351 350 345 346 345 339 331
134 205 230 233 241 229 100 322 163 191 177 152 199 204 205 206 210 214 217 224 230 238 243 260 285 311 320 334 348 355 352 350 350 349 355 355 357 357 0 6 360 354 351 350 349 348 345 340 343
216 264 266 220 218 3 123 260 301 183 178 186 189 203 202 204 207 212 215 225 226 233 240 254 272 290 304 324 337 343 345 342 347 349 351 354 354 353 359 7 4 360 356 349 345 344 344 339 337
188 303 314 296 315 346 161 231 137 173 169 204 213 211 200 202 206 212 215 219 223 225 229 237 250 266 281 304 323 330 336 339 339 343 347 350 348 350 350 356 360 352 354 354 350 346 344 343 341
129 222 37 279 194 274 234 234 199 213 228 208 214 203 201 203 206 212 215 221 223 224 228 233 246 258 271 288 304 319 325 334 332 334 341 343 345 346 350 348 352 355 346 348 353 349 346 347 340
292 68 218 179 294 279 227 274 257 206 224 205 209 207 205 204 207 211 214 219 221 222 228 230 238 244 252 272 288 304 315 325 330 335 337 339 339 342 346 345 347 353 357 347 351 351 346 345 343
155 203 186 315 283 287 308 266 163 185 198 202 210 209 205 203 208 209 213 219 221 222 228 229 234 237 240 255 271 292 309 321 326 330 333 337 339 340 343 344 345 346 348 357 344 347 345 345 344
301 272 250 233 180 246 310 273 151 171 191 210 209 209 209 209 208 209 212 217 221 222 223 226 231 235 235 244 259 278 295 311 321 327 330 334 338 341 342 344 347 344 337 352 350 343 342 344 343
Wind_Speed_850mb
10 7 9 2 8 9 5 8 7 11 7 9 10 7 18 19 13 6 12 9 6 10 16 23 28 38 45 50 41 32 29 27 27 27 24 28 26 27 28 30 30 31 32 31 34 34 33 29 25
11 11 5 4 10 11 9 8 12 9 21 18 13 8 11 12 20 16 6 4 4 10 19 22 32 40 43 33 31 29 24 24 26 26 27 24 29 30 32 32 32 29 30 30 30 34 35 35 32
10 10 6 5 6 8 4 7 18 26 16 5 9 14 8 10 13 9 7 4 11 19 25 26 37 35 31 25 22 24 24 22 20 19 25 26 27 30 32 32 32 30 30 30 32 34 33 35 37
6 2 2 9 1 7 7 16 28 22 9 4 14 17 14 8 6 10 4 8 17 26 29 29 29 27 24 22 20 18 18 15 17 18 21 27 30 32 31 30 28 28 32 33 32 34 35 35 34
4 4 6 3 6 7 7 18 17 12 12 12 2 13 12 11 15 8 6 14 19 25 29 29 28 25 22 17 19 17 18 18 17 17 21 25 31 32 33 29 28 28 31 33 31 35 33 35 33
7 6 10 8 7 8 12 19 13 8 10 12 12 14 11 14 10 4 9 13 20 23 28 29 29 26 24 21 19 18 17 17 23 26 27 30 34 36 34 33 32 31 33 35 33 32 31 34 38
6 6 3 0 9 11 11 12 9 10 14 10 9 7 14 14 9 3 11 16 20 24 26 26 25 25 24 22 22 21 24 26 28 29 32 34 37 38 39 40 39 35 39 40 35 36 35 35 35
2 1 7 4 9 6 17 14 11 4 9 11 5 7 13 19 7 5 10 11 14 18 21 23 25 25 24 23 25 25 27 28 30 31 32 35 37 39 43 45 46 48 48 43 45 40 44 40 41
3 7 4 5 7 11 21 11 6 8 17 9 6 10 23 20 6 4 6 10 12 15 20 24 25 26 26 25 29 29 28 27 29 32 35 38 39 42 45 48 49 48 48 47 46 45 46 47 42
4 5 5 7 5 7 21 11 17 13 20 15 22 24 23 16 8 4 6 10 13 16 18 24 25 26 27 26 30 30 29 30 32 34 36 38 40 44 46 47 49 48 45 43 45 47 47 39 36
7 5 8 8 5 15 19 15 9 14 10 13 26 29 22 15 7 7 7 10 12 17 19 22 23 26 27 29 29 28 29 29 31 37 39 40 40 39 39 41 39 41 42 39 42 40 37 39 38
6 12 5 9 12 12 16 18 13 3 6 13 28 27 21 13 7 7 7 9 10 14 19 21 23 24 27 27 28 28 27 31 34 38 39 41 39 39 37 34 36 34 34 38 38 38 39 39 39
11 10 12 15 15 16 16 10 8 12 15 26 29 23 19 11 7 7 5 9 11 13 17 19 21 24 27 27 29 27 28 29 35 33 36 40 38 37 36 34 34 34 35 35 38 37 38 37 38
11 18 20 10 12 11 9 10 9 15 23 25 23 21 16 10 5 4 5 7 10 13 15 16 18 24 27 27 30 30 29 32 30 32 36 37 35 34 34 34 36 34 33 34 34 36 35 35 37
20 13 11 11 8 6 7 10 12 25 27 24 22 19 16 10 3 1 5 5 10 12 16 16 18 23 27 30 31 30 30 29 29 32 33 35 35 35 33 32 33 36 34 37 32 31 34 34 32
6 7 6 10 12 6 6 5 13 27 29 26 22 21 16 12 7 4 9 6 11 12 13 15 20 22 25 28 29 28 28 27 29 28 31 36 37 36 30 30 33 40 39 37 38 36 38 35 35
7 4 3 8 14 7 12 1 13 25 29 26 25 22 19 15 11 6 9 9 14 15 12 13 17 20 24 26 26 27 25 26 26 28 31 40 35 34 31 31 33 38 38 35 35 34 37 42 38
3 5 3 7 11 14 11 19 11 26 30 28 27 24 23 17 14 10 10 12 15 15 12 12 15 19 23 22 20 19 20 22 25 31 37 38 33 34 32 31 33 33 33 34 36 40 40 37 39
2 4 7 1 5 8 15 21 15 27 31 29 29 29 27 22 16 15 13 11 13 12 11 11 13 17 21 20 20 16 20 20 23 30 35 36 35 33 30 30 33 32 33 34 36 39 45 44 42
5 9 5 3 4 8 9 23 15 24 33 34 33 32 30 25 21 18 14 11 12 11 10 8 12 16 19 19 20 17 20 20 23 28 29 34 34 34 30 31 30 32 33 30 31 35 43 38 46
6 10 3 7 3 7 14 9 8 13 21 22 34 33 31 31 26 21 18 15 15 12 10 8 10 14 17 18 20 19 19 19 19 25 28 32 33 33 35 31 28 31 32 35 34 31 35 44 38
10 3 2 6 8 5 4 4 8 11 14 25 33 41 37 35 30 24 21 20 16 14 12 10 10 12 13 14 15 16 15 16 23 26 30 30 31 32 34 32 30 30 31 32 32 30 31 36 40
5 1 5 6 7 7 6 7 10 4 13 24 36 41 40 37 33 28 25 21 18 17 14 11 10 13 13 13 15 17 16 18 23 24 27 29 28 30 33 35 32 32 31 32 32 32 31 30 35
14 4 5 5 6 7 6 7 9 10 5 9 25 38 41 40 36 29 25 22 19 20 16 12 11 13 13 13 14 16 18 19 21 24 24 28 26 25 28 36 32 29 30 32 33 32 33 33 33
7 7 4 7 6 4 4 8 6 11 10 7 16 34 41 40 37 31 29 26 23 23 18 14 11 12 12 12 13 15 18 20 22 25 26 29 27 27 30 35 34 31 32 31 32 31 33 35 36
3 6 5 8 6 6 4 9 3 5 6 15 12 16 38 41 38 34 35 32 30 27 23 17 14 12 11 10 11 14 16 17 20 23 26 28 28 29 30 32 35 33 33 35 34 29 32 32 30
7 6 4 3 1 8 3 7 9 10 15 19 21 24 41 44 41 38 37 35 31 29 25 20 17 13 11 11 10 13 16 17 19 22 26 28 30 31 32 32 33 33 29 31 34 30 30 32 30
3 3 4 4 5 8 6 10 8 15 26 25 29 37 41 41 41 40 40 38 35 32 28 24 20 15 13 13 11 12 15 17 18 22 24 27 30 33 34 34 33 31 33 29 31 33 29 31 30
6 5 2 3 4 6 8 4 3 17 22 28 38 42 44 47 45 43 42 40 38 35 31 27 23 19 16 15 12 12 14 16 18 20 24 26 28 30 31 33 33 29 30 38 27 32 30 30 29
6 3 8 5 6 1 4 12 5 6 14 20 26 37 42 44 45 43 44 42 42 40 35 31 27 24 20 17 14 12 13 14 17 18 21 23 24 27 30 31 32 28 24 35 34 30 32 29 27
Wind_Direction_850mb
155 149 171 177 233 241 131 104 104 119 113 50 69 50 82 44 13 24 117 81 48 359 339 355 338 326 325 326 332 340 345 342 346 354 354 352 356 351 358 357 348 348 346 359 346 341 336 328 329
162 174 162 248 257 263 105 122 122 85 118 115 81 84 59 78 65 102 108 68 6 330 331 348 325 321 326 338 350 354 351 340 353 344 352 357 358 348 351 348 346 345 345 348 341 336 337 339 327
147 155 240 252 268 312 50 113 122 118 128 142 114 69 69 81 73 98 126 27 350 328 321 322 315 325 336 357 351 356 359 3 351 350 348 350 349 345 343 344 350 348 345 342 341 335 334 334 333
150 151 181 257 51 78 62 127 134 135 119 112 124 82 82 72 96 110 82 347 331 327 326 325 328 334 339 351 359 2 9 1 349 346 353 349 341 344 347 353 344 346 340 341 334 331 331 331 328
170 235 227 187 108 105 115 136 151 143 125 130 141 114 89 104 119 104 14 348 343 335 336 335 337 338 341 356 3 7 6 3 10 355 347 341 344 346 345 343 339 342 337 334 332 330 330 322 326
231 268 247 260 126 120 121 149 147 139 122 118 109 114 105 138 117 69 7 355 341 340 338 340 343 348 352 350 357 17 12 359 346 342 342 343 343 343 343 340 336 338 332 329 329 323 320 321 318
267 259 331 173 147 160 153 159 185 138 133 92 117 89 134 147 149 31 353 349 348 347 348 352 353 355 358 357 354 351 347 345 344 345 344 344 344 344 342 341 338 337 331 331 328 322 324 319 308
77 288 164 188 188 119 143 133 121 113 104 117 104 138 154 170 155 11 11 10 4 359 356 358 359 2 4 3 1 356 352 351 348 346 345 346 346 344 342 340 335 332 329 327 326 324 320 319 309
111 232 222 147 178 120 156 146 108 118 123 103 86 110 132 147 102 64 19 6 6 6 4 1 2 2 5 359 357 359 358 356 353 352 350 349 345 342 340 335 332 328 326 324 325 326 326 323 323
341 269 68 41 70 134 153 167 143 155 140 105 111 123 134 131 113 39 22 9 6 3 3 358 358 1 4 0 358 359 356 354 352 351 346 344 342 339 337 336 334 330 326 325 324 323 324 329 322
19 41 112 47 78 137 143 137 148 160 182 166 164 152 146 138 92 53 30 14 5 0 357 356 358 1 4 3 1 355 354 350 349 346 344 343 342 342 341 338 336 333 333 332 330 327 324 321 319
119 72 83 103 105 131 147 136 128 143 101 146 155 150 148 135 87 51 29 11 4 357 354 356 0 3 1 2 356 353 351 350 347 344 343 343 343 342 341 340 336 335 332 330 328 324 320 319 318
88 120 84 105 108 112 128 123 130 127 119 137 145 149 151 138 97 51 29 4 4 354 355 353 359 3 1 360 355 351 349 346 345 344 345 348 344 343 341 338 338 334 330 328 327 324 322 319 316
113 118 116 115 119 124 150 146 177 166 151 148 156 159 159 145 126 50 12 352 355 355 352 356 358 359 3 357 353 353 350 347 348 350 350 349 347 343 341 342 342 337 331 328 329 331 328 320 325
132 119 135 149 148 127 163 188 217 166 167 168 171 171 168 174 178 71 331 335 353 348 351 349 359 360 359 357 354 355 349 352 353 353 352 352 351 347 345 345 343 345 340 339 341 334 335 333 325
182 206 210 152 181 155 227 104 152 169 177 184 182 185 182 197 198 244 318 329 343 345 341 351 357 0 356 353 353 352 353 356 356 356 354 353 352 351 351 343 345 349 356 347 347 345 338 334 330
186 311 257 167 198 167 228 353 147 180 196 196 196 194 200 206 219 254 307 321 332 334 343 343 352 353 351 353 354 356 358 360 360 359 357 356 356 356 353 347 345 348 348 352 348 338 338 336 331
325 268 228 285 160 215 220 254 183 193 204 205 203 201 209 212 223 235 285 306 326 327 333 336 345 346 348 354 355 357 1 2 2 1 359 1 358 358 354 349 343 341 343 344 345 343 343 337 331
346 279 283 172 124 254 250 264 232 207 210 212 211 211 214 216 218 240 270 294 312 310 321 320 335 338 349 354 356 3 3 2 1 360 2 3 1 356 354 350 345 343 340 339 344 341 342 344 341
263 282 276 161 137 242 272 271 250 217 221 220 217 216 216 213 219 228 247 259 283 274 288 314 325 335 347 354 356 4 5 2 0 3 2 2 2 1 355 349 346 345 340 335 337 340 337 339 340
261 279 275 315 192 236 288 249 200 212 221 220 222 221 219 216 219 224 227 236 258 252 270 278 309 328 343 351 357 1 358 357 357 0 2 1 4 2 0 353 347 346 343 341 332 333 336 335 340
289 78 282 266 277 334 317 360 193 192 216 215 216 213 215 214 218 220 221 232 239 242 260 268 299 324 333 349 359 359 356 354 354 1 3 3 5 5 3 1 357 353 351 343 344 337 334 331 332
35 7 284 266 266 281 159 260 115 207 237 213 211 210 210 212 214 217 220 225 233 239 248 262 293 315 333 342 354 3 354 349 352 354 359 2 6 6 5 2 357 353 351 350 345 346 345 339 331
134 205 230 233 241 229 100 322 163 191 177 152 199 204 205 206 210 214 217 224 230 238 243 260 285 311 320 334 348 355 352 350 350 349 355 355 357 357 0 6 360 354 351 350 349 348 345 340 343
216 264 266 220 218 3 123 260 301 183 178 186 189 203 202 204 207 212 215 225 226 233 240 254 272 290 304 324 337 343 345 342 347 349 351 354 354 353 359 7 4 360 356 349 345 344 344 339 337
188 303 314 296 315 346 161 231 137 173 169 204 213 211 200 202 206 212 215 219 223 225 229 237 250 266 281 304 323 330 336 339 339 343 347 350 348 350 350 356 360 352 354 354 350 346 344 343 341
129 222 37 279 194 274 234 234 199 213 228 208 214 203 201 203 206 212 215 221 223 224 228 233 246 258 271 288 304 319 325 334 332 334 341 343 345 346 350 348 352 355 346 348 353 349 346 347 340
292 68 218 179 294 279 227 274 257 206 224 205 209 207 205 204 207 211 214 219 221 222 228 230 238 244 252 272 288 304 315 325 330 335 337 339 339 342 346 345 347 353 357 347 351 351 346 345 343
155 203 186 315 283 287 308 266 163 185 198 202 210 209 205 203 208 209 213 219 221 222 228 229 234 237 240 255 271 292 309 321 326 330 333 337 339 340 343 344 345 346 348 357 344 347 345 345 344
301 272 250 233 180 246 310 273 151 171 191 210 209 209 209 209 208 209 212 217 221 222 223 226 231 235 235 244 259 278 295 311 321 327 330 334 338 341 342 344 347 344 337 352 350 343 342 344 343